| time (UTC) | temp C | wind direction | speed KPH | gust KPH | rain 1hr cm | rain 24hr cm | rain mn cm | humidity % | barometer mb |
| 20260504234516 | 24 | 254 | 19.3 | 35.4 | 0.00 | 0.00 | 0.00 | 45 | 1008.4 |
| 20260504233016 | 25 | 266 | 22.5 | 38.6 | 0.00 | 0.00 | 0.00 | 45 | 1008.5 |
| 20260504231517 | 25 | 253 | 24.1 | 40.2 | 0.00 | 0.00 | 0.00 | 44 | 1008.5 |
| 20260504230019 | 25 | 258 | 24.1 | 40.2 | 0.00 | 0.00 | 0.00 | 43 | 1008.6 |
| 20260504224521 | 25 | 263 | 19.3 | 38.6 | 0.00 | 0.00 | 0.00 | 42 | 1008.8 |
| 20260504223032 | 25 | 256 | 24.1 | 43.5 | 0.00 | 0.00 | 0.00 | 42 | 1008.8 |
| 20260504221525 | 25 | 255 | 20.9 | 48.3 | 0.00 | 0.00 | 0.00 | 42 | 1008.8 |
| 20260504220019 | 26 | 235 | 25.7 | 38.6 | 0.00 | 0.00 | 0.00 | 42 | 1009.0 |
| 20260504214525 | 26 | 260 | 22.5 | 41.8 | 0.00 | 0.00 | 0.00 | 42 | 1009.0 |
| 20260504213033 | 26 | 261 | 16.1 | 35.4 | 0.00 | 0.00 | 0.00 | 42 | 1008.6 |
| 20260504211524 | 26 | 263 | 24.1 | 43.5 | 0.00 | 0.00 | 0.00 | 42 | 1008.9 |
| 20260504210022 | 26 | 263 | 29.0 | 51.5 | 0.00 | 0.00 | 0.00 | 41 | 1009.1 |
| 20260504204534 | 25 | 261 | 33.8 | 51.5 | 0.00 | 0.00 | 0.00 | 39 | 1009.3 |
| 20260504203017 | 25 | 234 | 25.7 | 49.9 | 0.00 | 0.00 | 0.00 | 41 | 1009.4 |
| 20260504201503 | 25 | 259 | 32.2 | 48.3 | 0.00 | 0.00 | 0.00 | 40 | 1009.7 |
| 20260504200003 | 25 | 259 | 30.6 | 53.1 | 0.00 | 0.00 | 0.00 | 41 | 1009.7 |
| 20260504194507 | 25 | 256 | 37.0 | 51.5 | 0.00 | 0.00 | 0.00 | 40 | 1009.7 |
| 20260504193007 | 25 | 259 | 35.4 | 54.7 | 0.00 | 0.00 | 0.00 | 40 | 1009.9 |
| 20260504191512 | 25 | 252 | 37.0 | 54.7 | 0.00 | 0.00 | 0.00 | 39 | 1010.1 |
| 20260504190003 | 25 | 273 | 24.1 | 45.1 | 0.00 | 0.00 | 0.00 | 41 | 1010.3 |
| 20260504184504 | 25 | 286 | 24.1 | 43.5 | 0.00 | 0.00 | 0.00 | 39 | 1010.7 |
| 20260504183008 | 25 | 265 | 30.6 | 46.7 | 0.00 | 0.00 | 0.00 | 38 | 1011.0 |
| 20260504181514 | 25 | 273 | 35.4 | 53.1 | 0.00 | 0.00 | 0.00 | 38 | 1010.9 |
| 20260504180018 | 25 | 279 | 16.1 | 40.2 | 0.00 | 0.00 | 0.00 | 40 | 1011.3 |
| 20260504174504 | 25 | 276 | 30.6 | 45.1 | 0.00 | 0.00 | 0.00 | 38 | 1011.2 |
| 20260504173003 | 25 | 256 | 30.6 | 51.5 | 0.00 | 0.00 | 0.00 | 39 | 1011.4 |
| 20260504171510 | 25 | 252 | 25.7 | 49.9 | 0.00 | 0.00 | 0.00 | 42 | 1011.5 |
| 20260504081508 | 16 | 255 | 11.3 | 19.3 | 0.00 | 0.00 | 0.00 | 69 | 1012.5 |
| 20260504044535 | 17 | 259 | 9.7 | 16.1 | 0.00 | 0.00 | 0.00 | 67 | 1014.5 |
| 20260504043021 | 17 | 255 | 8.0 | 16.1 | 0.00 | 0.00 | 0.00 | 66 | 1014.6 |
| 20260504041518 | 17 | 250 | 9.7 | 19.3 | 0.00 | 0.00 | 0.00 | 65 | 1014.6 |
| 20260504040024 | 17 | 258 | 11.3 | 17.7 | 0.00 | 0.00 | 0.00 | 64 | 1014.6 |
| 20260504034525 | 18 | 252 | 14.5 | 19.3 | 0.00 | 0.00 | 0.00 | 63 | 1014.7 |
| 20260504033026 | 18 | 268 | 14.5 | 22.5 | 0.00 | 0.00 | 0.00 | 62 | 1014.6 |
| 20260504031514 | 18 | 265 | 14.5 | 20.9 | 0.00 | 0.00 | 0.00 | 61 | 1014.6 |
| 20260504030022 | 18 | 242 | 14.5 | 20.9 | 0.00 | 0.00 | 0.00 | 61 | 1014.6 |
| 20260504024523 | 18 | 250 | 11.3 | 20.9 | 0.00 | 0.00 | 0.00 | 60 | 1014.6 |
| 20260504023025 | 18 | 259 | 14.5 | 20.9 | 0.00 | 0.00 | 0.00 | 59 | 1014.6 |
| 20260504021526 | 18 | 252 | 11.3 | 19.3 | 0.00 | 0.00 | 0.00 | 60 | 1014.5 |
| 20260504020018 | 18 | 238 | 6.4 | 14.5 | 0.00 | 0.00 | 0.00 | 59 | 1014.5 |
| 20260504014523 | 19 | 240 | 8.0 | 14.5 | 0.00 | 0.00 | 0.00 | 58 | 1014.3 |
| 20260504013030 | 19 | 243 | 6.4 | 12.9 | 0.00 | 0.00 | 0.00 | 57 | 1014.3 |
| 20260504011527 | 20 | 242 | 6.4 | 14.5 | 0.00 | 0.00 | 0.00 | 56 | 1014.3 |
| 20260504010015 | 20 | 239 | 6.4 | 14.5 | 0.00 | 0.00 | 0.00 | 54 | 1014.2 |
| 20260504004519 | 20 | 238 | 11.3 | 19.3 | 0.00 | 0.00 | 0.00 | 53 | 1014.1 |
| 20260504003023 | 21 | 217 | 9.7 | 19.3 | 0.00 | 0.00 | 0.00 | 52 | 1014.3 |
| 20260504001508 | 21 | 244 | 12.9 | 20.9 | 0.00 | 0.00 | 0.00 | 50 | 1014.6 |
| 20260504000012 | 21 | 256 | 11.3 | 17.7 | 0.00 | 0.00 | 0.00 | 49 | 1014.6 |